Weather History for KALS - October, 2010

Change the Weather History Date:

Saturday, October 23, 2010

  Actual Average Record
Temperature  
Mean Temperature 45 °F 40 °F  
Max Temperature 58 °F 59 °F 74 °F (2003)
Min Temperature 32 °F 22 °F 4 °F (2008)
Degree Days  
Heating Degree Days 20 25  
Month to date heating degree days 388 467  
Since 1 July heating degree days 648 898  
Cooling Degree Days 0 0  
Month to date cooling degree days 0 0  
Year to date cooling degree days 128 51  
Moisture  
Dew Point 32 °F    
Average Humidity 62    
Maximum Humidity 92    
Minimum Humidity 32    
Precipitation  
Precipitation 0.00 in 0.02 in 0.60 in (2000)
Month to date precipitation 0.54 0.51  
Year to date precipitation 5.44 6.37  
Snow  
Snow 0.00 in 0.10 in 1.70 in (1972)
Month to date snowfall 0.0 1.2  
Since 1 July snowfall 0.0 1.2  
Since 1 September snowfall 0.0 1.2  
Snow Depth 0.00 in    
Sea Level Pressure  
Sea Level Pressure 29.84 in    
Wind  
Wind Speed 6 mph (West)    
Max Wind Speed 22 mph    
Max Gust Speed 29 mph    
Visibility 10 miles    
Events      
T = Trace of Precipitation, MM = Missing Value Source: NWS Daily Summary

Daily Weather History Graph

Daily Weather History Graph

Search for Another Location

Airport or City:

Trip Planner

Search our weather history database for the weather conditions in past years. The results will help you decide how hot, cold, wet, or windy it might be!

Date:

Astronomy

Oct. 23, 2010 Rise Set
Actual Time 7:19 AM MDT 6:15 PM MDT
Civil Twilight 6:52 AM MDT 6:42 PM MDT
Nautical Twilight 6:22 AM MDT 7:12 PM MDT
Astronomical Twilight 5:51 AM MDT 7:43 PM MDT
Moon 6:23 PM MDT (10/23) 7:59 AM MDT (10/23)
Length of Visible Light 11h 49m
Length of Day
10h 56m
Full, 100% of the Moon is Illuminated
Oct 23
Full
Oct 30
Last Quarter
Nov 5
New
Nov 13
First Quarter
Nov 21
Full

Hourly Weather History & Observations

Time (MDT) Temp. Windchill Dew Point Humidity Pressure Visibility Wind Dir Wind Speed Gust Speed Precip Events Conditions
12:52 AM 41.0 °F 33.1 °F 34.0 °F 76% 29.75 in 10.0 mi South 15.0 mph - N/A   Overcast
1:52 AM 39.9 °F 32.1 °F 34.0 °F 79% 29.74 in 10.0 mi SSW 13.8 mph - N/A   Mostly Cloudy
2:52 AM 37.9 °F 30.9 °F 33.1 °F 83% 29.75 in 10.0 mi SW 10.4 mph - N/A   Partly Cloudy
3:52 AM 37.0 °F 30.4 °F 33.1 °F 86% 29.76 in 10.0 mi SSW 9.2 mph - N/A   Scattered Clouds
4:52 AM 37.9 °F 35.5 °F 33.1 °F 83% 29.75 in 10.0 mi West 3.5 mph - N/A   Mostly Cloudy
5:52 AM 34.0 °F - 30.9 °F 89% 29.81 in 10.0 mi Calm Calm - N/A   Scattered Clouds
6:52 AM 32.0 °F 28.7 °F 30.0 °F 92% 29.85 in 10.0 mi ESE 3.5 mph - N/A   Scattered Clouds
7:52 AM 32.0 °F - 30.0 °F 92% 29.87 in 10.0 mi Calm Calm - N/A   Mostly Cloudy
8:52 AM 37.0 °F - 33.1 °F 86% 29.89 in 10.0 mi Calm Calm - N/A   Partly Cloudy
9:52 AM 45.0 °F 43.5 °F 35.1 °F 68% 29.88 in 10.0 mi SSW 3.5 mph - N/A   Clear
10:52 AM 51.1 °F - 33.1 °F 50% 29.85 in 10.0 mi Calm Calm - N/A   Clear
11:52 AM 53.1 °F - 32.0 °F 45% 29.83 in 10.0 mi Calm Calm - N/A   Clear
12:52 PM 54.0 °F - 32.0 °F 43% 29.79 in 10.0 mi NNW 9.2 mph - N/A   Mostly Cloudy
1:52 PM 55.9 °F - 30.9 °F 39% 29.77 in 10.0 mi NNW 12.7 mph 20.7 mph N/A   Scattered Clouds
2:52 PM 55.9 °F - 30.0 °F 37% 29.77 in 10.0 mi North 15.0 mph 24.2 mph N/A   Partly Cloudy
3:52 PM 57.0 °F - 28.9 °F 34% 29.78 in 10.0 mi North 20.7 mph 27.6 mph N/A   Partly Cloudy
4:52 PM 55.9 °F - 27.0 °F 33% 29.79 in 10.0 mi North 12.7 mph 23.0 mph N/A   Clear
5:52 PM 50.0 °F - 28.9 °F 44% 29.86 in 10.0 mi North 8.1 mph - N/A   Partly Cloudy
6:52 PM 46.0 °F 43.1 °F 30.0 °F 54% 29.91 in 10.0 mi North 5.8 mph - N/A   Mostly Cloudy
7:52 PM 48.0 °F - 28.0 °F 46% 29.93 in 10.0 mi NNW 5.8 mph - N/A   Overcast
8:52 PM 45.0 °F - 30.0 °F 56% 29.94 in 10.0 mi Calm Calm - N/A   Overcast
9:52 PM 43.0 °F 41.3 °F 34.0 °F 71% 29.94 in 10.0 mi SSE 3.5 mph - N/A   Overcast
10:52 PM 41.0 °F 36.4 °F 34.0 °F 76% 29.93 in 10.0 mi South 6.9 mph - N/A   Overcast
11:52 PM 37.9 °F 35.5 °F 33.1 °F 83% 29.92 in 10.0 mi South 3.5 mph - N/A   Clear